This demonstration page uses our WeatherBlox Daily Observations layout. Learn more.

Left ArrowRight Arrow

41.86663, -103.66717

Hourly Observations for July 30, 2017

Temp ( °F °C ) Dew Point ( °F °C ) Humidity (%) Winds ( mph kmh ) Pressure ( in mb ) Visibility ( mi km ) Precip ( " mm )
12:53 am 00:53 Clear 64 17.8 61 16.1 90 90 N 7 11 30.07 1018 10 16 0.00 0.00
1:53 am 01:53 Clear 64 17.8 60 15.6 87 87 NW 9 15 30.05 1018 10 16 0.00 0.00
2:53 am 02:53 Clear 63 17.2 59 15 87 87 NW 5 7 30.05 1018 10 16 0.00 0.00
3:53 am 03:53 Clear 63 17.2 59 15 87 87 Calm 30.05 1018 10 16 0.00 0.00
4:53 am 04:53 Clear 60 15.6 58 14.4 93 93 Calm 30.06 1018 8 13 0.00 0.00
5:53 am 05:53 Sunny with Mist and Fog 60 15.6 58 14.4 93 93 NW 8 13 30.07 1018 5 8 0.00 0.00
6:53 am 06:53 Sunny 63 17.2 59 15 87 87 NW 12 19 30.09 1019 9 14 0.00 0.00
7:53 am 07:53 Sunny 66 18.9 59 15 78 78 WNW 12 19 30.10 1019 10 16 0.00 0.00
8:53 am 08:53 Sunny 71 21.7 61 16.1 71 71 NW 9 15 30.10 1019 10 16 0.00 0.00
9:53 am 09:53 Sunny 76 24.4 62 16.7 62 62 VRB 7 11 30.09 1019 10 16 0.00 0.00
10:53 am 10:53 Sunny 82 27.8 58 14.4 44 44 NW 7 11 30.08 1019 10 16 0.00 0.00
11:53 am 11:53 Sunny 85 29.4 57 13.9 39 39 undefined N/A 30.07 1018 10 16 0.00 0.00
12:53 pm 12:53 Sunny 87 30.6 58 14.4 37 37 VRB 3 6 30.05 1018 10 16 0.00 0.00
1:53 pm 13:53 Sunny 89 31.7 56 13.3 33 33 VRB 3 6 30.03 1017 10 16 0.00 0.00
2:53 pm 14:53 Mostly Sunny 88 31.1 54 12.2 31 31 Calm 30.01 1016 10 16 0.00 0.00
3:53 pm 15:53 Mostly Sunny 88 31.1 56 13.3 34 34 SE 9 15 30.00 1016 10 16 0.00 0.00
4:53 pm 16:53 Sunny 89 31.7 55 12.8 31 31 ESE 7 11 30.00 1016 10 16 0.00 0.00
5:53 pm 17:53 Sunny 86 30 55 12.8 35 35 ESE 5 7 29.99 1016 10 16 0.00 0.00
6:53 pm 18:53 Sunny 86 30 57 13.9 37 37 E 7 11 29.99 1016 10 16 0.00 0.00
7:53 pm 19:53 Mostly Sunny 80 26.7 63 17.2 56 56 ESE 9 15 30.01 1016 10 16 0.00 0.00
8:53 pm 20:53 Mostly Cloudy with Light Rain 76 24.4 64 17.8 67 67 undefined N/A 30.04 1017 10 16 0.00 0.03
9:53 pm 21:53 Clear 71 21.7 64 17.8 79 79 E 7 11 30.05 1018 10 16 0.00 0.03
10:53 pm 22:53 Clear 69 20.6 63 17.2 81 81 E 5 7 30.05 1018 10 16 0.00 0.00
11:53 pm 23:53 Clear 68 20 62 16.7 81 81 ESE 13 20 30.06 1018 10 16 0.00 0.00

Powered by AerisWeather